Tracking 30918 objects as of 2-Jul-2025
HD Live streaming from Space Station
objects crossing your sky now

STARLINK-5635

Track STARLINK-5635 now!
10-day predictions
STARLINK-5635 is classified as:


NORAD ID: 55367
Int'l Code: 2023-013AN
Perigee: 565.2 km
Apogee: 567.2 km
Inclination: 43.0 °
Period: 95.8 minutes
Semi major axis: 6937 km
RCS: Unknown
Launch date: January 26, 2023
Source: United States (US)
Launch site: AIR FORCE EASTERN TEST RANGE (AFETR)
Your satellite tracking list
RADIO 8
Track 1 satellite(s)




NASA's NSSDC Master Catalog

Two Line Element Set (TLE):
1 55367U 23013AN  25182.44763590 -.00000182  00000-0  15890-5 0  9991
2 55367  43.0032 212.7009 0001453 274.4774  85.5902 15.02534078134067
Source of the keplerian elements: AFSPC